#timestamp,LO_Frequency,Hit,StdDev 
1550476815.4,286047007.0,Y
1550476835.2,286047001.4,P
1550476855.1,286046999.9,N
1550476856.0,286046999.9,N
1550476875.8,286047000.1,N
1550476895.7,286046999.9,N
1550476915.5,286047000.0,N
1550476935.3,286047002.6,N
1550476955.2,286046999.8,N
1550476975.0,286047002.7,N
1550476975.9,286047002.7,N
1550476995.8,286047002.3,N
1550477015.6,286046999.8,N
1550477035.4,286046998.6,N
1550477055.3,286046998.5,N
1550477075.1,286046996.9,N
1550477095.8,286046997.5,N
1550477115.7,286046999.5,N
1550477135.5,286046997.8,N
1550477155.4,286046997.6,N
1550477175.2,286046995.5,N
1550477195.0,286046993.5,N
1550477195.9,286046993.5,N
1550477215.8,286046994.6,N
1550477235.6,286046994.5,N
1550477255.5,286046993.7,N
1550477275.3,286046996.2,N
1550477295.1,286046993.4,N
1550477315.9,286046994.8,N
1550477335.7,286046993.8,N
1550477355.6,286046993.3,N
1550477375.4,286046993.7,N
1550477395.3,286046996.3,N
1550477415.1,286046996.4,N
1550477416.0,286046996.4,N
1550477435.8,286046993.6,N
1550477455.0,286046996.0,N
1550477455.9,286046996.0,N
1550477475.8,286046995.4,N
1550477495.6,286046997.6,N
1550477515.4,286046995.2,N
1550477535.3,286046995.1,N
1550477555.1,286046994.6,N
1550477575.9,286046994.2,Y
1550477595.7,286046998.8,P
1550477615.5,286046999.1,N
1550477635.4,286046997.3,N
1550477655.2,286046998.0,N
1550477675.0,286046997.7,N
1550477675.9,286046997.7,N
1550477695.8,286046996.8,Y
1550477715.6,286047000.3,P
1550477735.5,286047000.3,N
1550477755.3,286047000.1,N
1550477775.1,286047001.8,N
1550477795.9,286047002.5,N
1550477815.7,286047002.3,N
1550477835.6,286047001.5,N
1550477855.4,286047002.7,N
1550477875.2,286047001.0,N
1550477895.1,286046998.3,N
1550477896.0,286046998.3,N
1550477915.8,286046998.7,N
1550477935.7,286046998.7,N
1550477955.5,286046999.6,N
1550477975.3,286046997.3,N
1550477995.2,286046998.0,N
1550478015.0,286046999.1,N
1550478015.9,286046999.1,N
1550478035.8,286046995.7,N
1550478055.6,286046993.5,Y
1550478075.4,286046994.6,P
1550478095.3,286046994.6,N
1550478115.1,286046994.2,N
1550478135.9,286046993.8,N
1550478155.7,286046993.5,Y
1550478175.5,286046998.6,P
1550478195.4,286047002.7,N
1550478215.2,286047002.2,N
1550478235.1,286047001.7,N
1550478236.0,286047001.7,N
1550478255.8,286047002.3,N
1550478275.6,286047000.5,N
1550478295.5,286046998.2,N
1550478315.3,286046998.4,N
1550478335.1,286046997.0,N
1550478355.9,286046999.3,N
1550478375.7,286046996.5,N
1550478395.6,286046999.5,N
1550478415.4,286046996.8,N
1550478435.2,286046997.9,N
1550478455.1,286046999.5,N
1550478456.0,286046999.5,N
1550478475.8,286046996.8,N
1550478495.7,286046998.9,N
1550478515.5,286046997.1,N
1550478535.3,286046999.2,N
1550478555.2,286046996.6,N
1550478575.9,286046997.3,N
1550478595.7,286046997.9,N
1550478615.6,286046994.9,N
1550478635.4,286046997.9,N
1550478655.3,286046994.9,N
1550478675.1,286046995.1,N
1550478676.0,286046995.1,N
1550478695.8,286046995.5,N
1550478715.7,286046993.8,N
1550478735.5,286046993.5,N
1550478755.3,286046994.6,N
1550478775.2,286046994.8,N
1550478795.0,286046992.0,Y
1550478795.9,286046992.0,P
1550478815.8,286046996.0,N
1550478835.6,286046994.4,N
1550478855.4,286046992.5,Y
1550478875.3,286046997.7,P
1550478895.1,286046997.7,N
1550478915.9,286046998.4,N
1550478935.7,286047000.7,N
1550478955.5,286047001.0,N
1550478975.4,286047001.6,N
1550478995.2,286047000.4,N
1550479015.0,286046998.2,N
1550479015.9,286046998.2,N
1550479035.8,286046999.4,N
1550479055.6,286046996.5,N
1550479075.5,286046999.4,N
1550479095.3,286047000.9,N
1550479115.1,286047002.1,N
1550479135.9,286047001.7,N
1550479155.7,286047004.3,N
1550479175.5,286047003.9,N
1550479195.4,286047001.5,N
1550479215.2,286047001.4,N
1550479235.1,286047002.5,N
1550479236.0,286047002.5,N
1550479255.8,286047001.5,N
1550479275.6,286047001.6,N
1550479295.5,286047002.3,N
1550479315.3,286047002.0,N
1550479335.1,286047002.6,N
1550479355.9,286047000.5,N
1550479375.7,286046999.8,N
1550479395.6,286046998.6,N
1550479415.4,286047000.2,N
1550479435.2,286047000.5,N
1550479455.1,286047000.2,N
1550479456.0,286047000.2,N
1550479475.8,286047000.3,N
1550479495.6,286046998.6,N
1550479515.5,286046998.8,N
1550479535.3,286046998.6,N
1550479555.2,286046998.7,N
1550479575.9,286047000.4,N
1550479595.7,286047002.7,N
1550479615.6,286047001.9,N
1550479635.4,286047002.8,N
1550479655.3,286047002.3,N
1550479675.1,286047000.6,N
1550479676.0,286047000.6,N
1550479695.8,286047000.0,N
1550479715.7,286047000.6,N
1550479735.5,286047000.3,N
1550479755.3,286047000.2,N
1550479775.2,286047001.4,N
1550479795.0,286047003.7,N
1550479795.9,286047003.7,N
1550479815.8,286047001.5,N
1550479835.6,286047003.8,N
1550479855.4,286047002.9,N
1550479875.3,286047003.9,N
1550479895.1,286047004.0,N
1550479915.9,286047001.3,N
1550479935.7,286047004.0,N
1550479955.5,286047003.8,N
1550479975.4,286047003.1,N
1550479995.2,286047003.2,N
1550480015.1,286047003.0,N
1550480016.0,286047003.0,N
1550480035.8,286047005.8,Y
1550480055.6,286047002.1,P
1550480075.5,286047001.7,P
1550480095.3,286047001.7,P
1550480115.2,286047004.3,Y
1550480135.9,286047001.7,P
1550480155.7,286047001.6,P
1550480175.6,286047002.4,P
1550480195.4,286047001.9,Y
1550480215.3,286047002.8,P
1550480235.1,286047000.6,N
1550480236.0,286047000.6,N
1550480255.1,286047000.4,N
1550480256.0,286047000.4,N
1550480275.8,286046999.4,N
1550480295.7,286046996.7,Y
1550480315.5,286046997.8,P
1550480335.4,286046996.8,N
1550480355.2,286046997.4,N
1550480375.0,286046997.4,N
1550480375.9,286046997.4,N
1550480395.8,286046999.2,N
